EW9931 Weather Reports


time (UTC)temp
C
wind
direction
speed
KPH
gust
KPH
rain 1hr
cm
rain 24hr
cm
rain mn
cm
humidity
%
barometer
mb
20260831220022 19 209 3.2 0.0 0.00 0.00 0.00 32 1003.6
20260831214527 19 126 3.2 0.0 0.00 0.00 0.00 32 1003.9
20260831213022 19 208 4.8 0.0 0.00 0.00 0.00 29 1004.1
20260831211521 20 110 3.2 0.0 0.00 0.00 0.00 31 1004.0
20260831210020 20 216 3.2 0.0 0.00 0.00 0.00 31 1003.5
20260831204520 20 161 0.0 0.0 0.00 0.00 0.00 32 1003.7
20260831203031 20 222 4.8 0.0 0.00 0.00 0.00 35 1004.1
20260831201518 19 193 4.8 0.0 0.00 0.00 0.00 38 1003.9
20260831200018 20 206 1.6 0.0 0.00 0.00 0.00 39 1003.8
20260831194516 20 216 3.2 0.0 0.00 0.00 0.00 39 1004.2
20260831193016 19 229 3.2 0.0 0.00 0.00 0.00 42 1004.0
20260831191531 18 219 3.2 0.0 0.00 0.00 0.00 45 1004.5
20260831190004 18 208 1.6 0.0 0.00 0.00 0.00 45 1004.6
20260831184601 18 216 1.6 0.0 0.00 0.00 0.00 46 1004.4
20260831183057 17 130 1.6 0.0 0.00 0.00 0.00 50 1005.0
20260831181552 17 223 1.6 0.0 0.00 0.00 0.00 51 1004.9
20260831180049 17 196 1.6 0.0 0.00 0.00 0.00 52 1004.8
20260831174545 17 171 1.6 0.0 0.00 0.00 0.00 53 1004.8
20260831173044 17 223 1.6 0.0 0.00 0.00 0.00 52 1004.7
20260831171535 17 200 1.6 0.0 0.00 0.00 0.00 51 1004.6
20260831170031 17 119 3.2 0.0 0.00 0.00 0.00 49 1004.6
20260831164526 16 217 1.6 0.0 0.00 0.00 0.00 50 1004.4
20260831163021 16 152 1.6 0.0 0.00 0.00 0.00 50 1004.8
20260831161517 16 133 0.0 0.0 0.00 0.00 0.00 50 1004.8
20260831160022 16 182 1.6 0.0 0.00 0.00 0.00 51 1004.8
20260831154508 15 172 0.0 0.0 0.00 0.00 0.00 51 1004.8
20260831153003 15 138 0.0 0.0 0.00 0.00 0.00 51 1004.6
20260831151502 14 134 0.0 0.0 0.00 0.00 0.00 50 1004.9
20260831150003 14 138 0.0 0.0 0.00 0.00 0.00 51 1004.9
20260831144600 13 140 0.0 0.0 0.00 0.00 0.00 51 1004.8
20260831143113 13 152 0.0 0.0 0.00 0.00 0.00 52 1004.9
20260831141558 13 161 0.0 0.0 0.00 0.00 0.00 50 1004.7
20260831140057 13 160 0.0 0.0 0.00 0.00 0.00 47 1003.8
20260831134600 13 150 0.0 0.0 0.00 0.00 0.00 46 1003.8
20260831133055 13 157 0.0 0.0 0.00 0.00 0.00 45 1003.8
20260831131607 13 191 0.0 0.0 0.00 0.00 0.00 38 1003.5
20260831130107 13 137 0.0 0.0 0.00 0.00 0.00 34 1003.1
20260831124600 13 168 0.0 0.0 0.00 0.00 0.00 30 1003.2
20260831123057 13 167 0.0 0.0 0.00 0.00 0.00 30 1003.1
20260831121554 13 157 0.0 0.0 0.00 0.00 0.00 31 1002.6
20260831120049 13 143 0.0 0.0 0.00 0.00 0.00 32 1001.7
20260831114548 13 143 0.0 0.0 0.00 0.00 0.00 32 1001.7
20260831113048 13 191 0.0 0.0 0.00 0.00 0.00 33 1001.7
20260831111552 13 165 0.0 0.0 0.00 0.00 0.00 35 1001.9
20260831110047 13 162 0.0 0.0 0.00 0.00 0.00 34 1001.5
20260831104546 13 150 1.6 0.0 0.00 0.00 0.00 34 1001.5
20260831103047 13 208 1.6 0.0 0.00 0.00 0.00 34 1001.5
20260831101548 13 174 0.0 0.0 0.00 0.00 0.00 35 1001.5
20260831094543 13 179 0.0 0.0 0.00 0.00 0.00 36 1001.2
20260831093048 13 178 1.6 0.0 0.00 0.00 0.00 35 1001.0
20260831091541 13 144 1.6 0.0 0.00 0.00 0.00 37 1000.9
20260831090040 13 164 0.0 0.0 0.00 0.00 0.00 42 1001.3
20260831084544 13 165 0.0 0.0 0.00 0.00 0.00 41 1001.6
20260831083037 14 137 0.0 0.0 0.00 0.00 0.00 41 1001.6
20260831081538 14 184 0.0 0.0 0.00 0.00 0.00 36 1001.9
20260831080032 14 160 1.6 0.0 0.00 0.00 0.00 30 1001.7
20260831074534 14 210 1.6 0.0 0.00 0.00 0.00 33 1001.7
20260831073032 14 131 1.6 0.0 0.00 0.00 0.00 31 1001.8
20260831071536 14 185 0.0 0.0 0.00 0.00 0.00 34 1001.8
20260831070030 14 203 0.0 0.0 0.00 0.00 0.00 35 1002.8
20260831064530 14 182 0.0 0.0 0.00 0.00 0.00 33 1002.7
20260831063033 14 193 1.6 0.0 0.00 0.00 0.00 34 1002.4
20260831061529 14 145 1.6 0.0 0.00 0.00 0.00 35 1002.3
20260831060028 14 208 0.0 0.0 0.00 0.00 0.00 36 1002.8
20260831054527 14 160 0.0 0.0 0.00 0.00 0.00 36 1002.8
20260831053043 15 162 0.0 0.0 0.00 0.00 0.00 36 1002.8
20260831051531 15 136 1.6 0.0 0.00 0.00 0.00 35 1003.2
20260831050026 15 191 0.0 0.0 0.00 0.00 0.00 34 1003.7
20260831044526 15 161 0.0 0.0 0.00 0.00 0.00 34 1003.7
20260831043025 15 133 1.6 0.0 0.00 0.00 0.00 34 1003.5
20260831041525 15 114 0.0 0.0 0.00 0.00 0.00 34 1003.4
20260831040024 15 171 0.0 0.0 0.00 0.00 0.00 34 1003.8
20260831034524 15 154 0.0 0.0 0.00 0.00 0.00 35 1003.7
20260831033031 15 140 0.0 0.0 0.00 0.00 0.00 36 1003.6
20260831031527 15 147 0.0 0.0 0.00 0.00 0.00 35 1003.4
20260831030022 15 140 0.0 0.0 0.00 0.00 0.00 37 1004.6
20260831024522 15 195 0.0 0.0 0.00 0.00 0.00 42 1004.3
20260831023033 16 175 1.6 0.0 0.00 0.00 0.00 45 1004.1
20260831021534 16 202 3.2 0.0 0.00 0.00 0.00 48 1003.7
20260831020039 16 202 3.2 0.0 0.00 0.00 0.00 53 1003.4
20260831014520 17 205 3.2 0.0 0.00 0.00 0.00 55 1003.8
20260831013020 17 205 3.2 0.0 0.00 0.00 0.00 54 1003.9
20260831011524 18 186 1.6 0.0 0.00 0.00 0.00 52 1003.5
20260831010019 18 224 3.2 0.0 0.00 0.00 0.00 50 1003.1
20260831004518 19 117 3.2 0.0 0.00 0.00 0.00 49 1002.7
20260831003017 20 219 4.8 0.0 0.00 0.00 0.00 47 1002.7
20260831001525 20 116 3.2 0.0 0.00 0.00 0.00 45 1002.2
20260831000020 21 200 3.2 0.0 0.00 0.00 0.00 41 1001.6
20260830234526 21 212 1.6 0.0 0.00 0.00 0.00 38 1001.9
20260830233014 22 196 3.2 0.0 0.00 0.00 0.00 36 1001.9
20260830231518 22 222 1.6 0.0 0.00 0.00 0.00 35 1001.6
20260830230012 22 208 3.2 0.0 0.00 0.00 0.00 34 1002.0
20260830224512 22 222 1.6 0.0 0.00 0.00 0.00 32 1001.6
20260830223011 22 157 1.6 0.0 0.00 0.00 0.00 32 1002.0
20260830221513 22 144 3.2 0.0 0.00 0.00 0.00 31 1002.2